Location: Poigny-la-Forêt
(48.6876°N, 1.7701°E)
Time: 15:30:51
(UTC+02:00)

ISS - Pass Details

Date: 22 May 2019
Orbit: 408 x 418 km, 51.6° (Epoch: 25 June)

Event Time Altitude Azimuth Distance (km) Brightness Sun altitude
Rises 02:35:33 0° 291° (WNW) 2,368 0.2 -20.3°
Reaches altitude 10° 02:37:39 10° 289° (WNW) 1,504 -0.9 -20.2°
Enters shadow 02:39:38 32° 284° (WNW) 739 -2.6 -20.1°
